Location: Gönnheim
(49.4488°N, 8.2383°E)
Time: 00:53:57
(UTC+00:00)

IKONOS-2 - Pass Details

Date: 19 May 2025
Orbit: 577 x 585 km, 98.2° (Epoch: 22 June)

Event Time Altitude Azimuth Distance (km) Brightness Sun altitude
Rises 20:22:09 0° 16° (NNE) 2,806 8.4 -9.8°
Reaches altitude 10° 20:24:20 10° 20° (NNE) 1,903 7.5 -10.0°
Maximum altitude 20:28:26 64° 102° (ESE) 646 4.4 -10.5°
Drops below altitude 10° 20:32:30 10° 185° (S) 1,891 6.6 -10.9°
Enters shadow 20:33:21 - 186° (S) 2,243 7.0 -11.0°
